Terminal Aerodrome Forecast
Issued by NWS Los Angeles, CA

Home | Current Version | Previous Version | Text Only | Print | Product List | Glossary On
Versions: 1 2 3 4 5 6 7 8 9 10 11 12 13 14 15 16 17 18 19 20 21 22 23 24 25 26 27 28 29 30 31 32 33 34
000
FTUS46 KLOX 221200 AAA
TAFSMX
TAF AMD
KSMX 221258Z 2213/2312 04012G20KT P6SM SKC
     FM221600 35010KT P6SM SKC
     FM222200 30014G22KT P6SM SKC
     FM230200 30010KT P6SM SKC
     FM230500 VRB03KT P6SM SKC=

USA.gov is the U.S. government's official web portal to all federal, state and local government web resources and services.